TimeCST,TemperatureF,Dew PointF,Humidity,Sea Level PressureIn,VisibilityMPH,Wind Direction,Wind SpeedMPH,Gust SpeedMPH,PrecipitationIn,Events,Conditions,WindDirDegrees,DateUTC
12:15 AM,41.0,17.6,39,29.96,10.0,West,10.4,16.1,N/A,,Clear,280,2014-02-21 06:15:00
12:35 AM,39.2,17.6,42,29.96,10.0,West,6.9,-,N/A,,Clear,260,2014-02-21 06:35:00
12:55 AM,39.2,17.6,42,29.96,10.0,West,9.2,-,N/A,,Clear,260,2014-02-21 06:55:00
1:15 AM,37.4,17.6,45,29.98,10.0,West,9.2,-,N/A,,Clear,260,2014-02-21 07:15:00
1:35 AM,37.4,17.6,45,29.98,10.0,West,9.2,-,N/A,,Clear,260,2014-02-21 07:35:00
1:55 AM,37.4,17.6,45,29.98,10.0,West,6.9,-,N/A,,Clear,260,2014-02-21 07:55:00
2:15 AM,37.4,17.6,45,30.00,10.0,West,8.1,-,N/A,,Clear,260,2014-02-21 08:15:00
2:35 AM,35.6,17.6,48,30.00,10.0,West,6.9,-,N/A,,Clear,260,2014-02-21 08:35:00
2:55 AM,35.6,17.6,48,29.99,10.0,West,5.8,-,N/A,,Clear,280,2014-02-21 08:55:00
3:15 AM,35.6,17.6,48,29.99,10.0,West,6.9,-,N/A,,Clear,280,2014-02-21 09:15:00
3:35 AM,35.6,15.8,44,29.99,10.0,West,5.8,-,N/A,,Clear,270,2014-02-21 09:35:00
3:55 AM,35.6,15.8,44,29.99,10.0,West,4.6,-,N/A,,Clear,270,2014-02-21 09:55:00
4:15 AM,33.8,15.8,48,29.99,10.0,Calm,Calm,-,N/A,,Clear,0,2014-02-21 10:15:00
4:35 AM,33.8,15.8,48,29.99,10.0,WSW,3.5,-,N/A,,Clear,240,2014-02-21 10:35:00
4:55 AM,30.2,15.8,55,30.00,10.0,SSW,4.6,-,N/A,,Clear,210,2014-02-21 10:55:00
5:15 AM,30.2,15.8,55,30.00,10.0,SW,4.6,-,N/A,,Clear,220,2014-02-21 11:15:00
5:35 AM,30.2,15.8,55,30.00,10.0,WSW,3.5,-,N/A,,Clear,250,2014-02-21 11:35:00
5:55 AM,30.2,15.8,55,30.00,10.0,WSW,4.6,-,N/A,,Clear,250,2014-02-21 11:55:00
6:15 AM,28.4,15.8,59,30.00,10.0,SW,5.8,-,N/A,,Clear,230,2014-02-21 12:15:00
6:35 AM,30.2,15.8,55,30.00,10.0,SW,4.6,-,N/A,,Clear,230,2014-02-21 12:35:00
6:55 AM,30.2,15.8,55,30.00,10.0,SW,4.6,-,N/A,,Clear,220,2014-02-21 12:55:00
7:15 AM,30.2,15.8,55,30.01,10.0,SW,6.9,-,N/A,,Clear,220,2014-02-21 13:15:00
7:35 AM,30.2,17.6,60,30.02,10.0,SW,5.8,-,N/A,,Clear,220,2014-02-21 13:35:00
7:55 AM,32.0,17.6,55,30.03,10.0,SW,5.8,-,N/A,,Clear,220,2014-02-21 13:55:00
8:15 AM,33.8,19.4,56,30.04,10.0,SW,6.9,-,N/A,,Clear,230,2014-02-21 14:15:00
8:35 AM,35.6,17.6,48,30.04,10.0,WSW,5.8,-,N/A,,Clear,240,2014-02-21 14:35:00
8:55 AM,39.2,19.4,45,30.04,10.0,SW,6.9,-,N/A,,Clear,230,2014-02-21 14:55:00
9:15 AM,41.0,19.4,42,30.04,10.0,SW,8.1,-,N/A,,Clear,220,2014-02-21 15:15:00
9:35 AM,42.8,19.4,39,30.04,10.0,SW,6.9,-,N/A,,Clear,220,2014-02-21 15:35:00
9:55 AM,44.6,21.2,39,30.04,10.0,SSW,8.1,-,N/A,,Clear,210,2014-02-21 15:55:00
10:15 AM,46.4,19.4,34,30.04,10.0,SW,11.5,-,N/A,,Clear,220,2014-02-21 16:15:00
10:35 AM,48.2,19.4,32,30.03,10.0,SW,11.5,-,N/A,,Clear,230,2014-02-21 16:35:00
10:55 AM,50.0,17.6,28,30.02,10.0,SSW,8.1,-,N/A,,Clear,210,2014-02-21 16:55:00
11:15 AM,51.8,17.6,26,30.02,10.0,SW,11.5,-,N/A,,Clear,230,2014-02-21 17:15:00
11:35 AM,53.6,17.6,24,30.02,10.0,SSW,10.4,-,N/A,,Clear,200,2014-02-21 17:35:00
11:55 AM,53.6,17.6,24,30.01,10.0,SW,13.8,-,N/A,,Clear,220,2014-02-21 17:55:00
12:15 PM,53.6,17.6,24,30.01,10.0,SW,15.0,20.7,N/A,,Clear,220,2014-02-21 18:15:00
12:35 PM,55.4,17.6,23,30.00,10.0,SW,17.3,20.7,N/A,,Clear,230,2014-02-21 18:35:00
12:55 PM,55.4,17.6,23,29.99,10.0,WSW,12.7,20.7,N/A,,Clear,250,2014-02-21 18:55:00
1:15 PM,57.2,17.6,21,29.98,10.0,WSW,11.5,-,N/A,,Clear,240,2014-02-21 19:15:00
1:35 PM,57.2,15.8,20,29.98,10.0,WSW,13.8,23.0,N/A,,Clear,240,2014-02-21 19:35:00
1:55 PM,57.2,15.8,20,29.97,10.0,SW,15.0,19.6,N/A,,Clear,230,2014-02-21 19:55:00
2:15 PM,59.0,15.8,19,29.96,10.0,SW,11.5,-,N/A,,Clear,230,2014-02-21 20:15:00
2:35 PM,59.0,15.8,19,29.96,10.0,WSW,18.4,25.3,N/A,,Clear,240,2014-02-21 20:35:00
2:55 PM,59.0,15.8,19,29.95,10.0,WSW,17.3,23.0,N/A,,Clear,240,2014-02-21 20:55:00
3:15 PM,59.0,15.8,19,29.95,10.0,WSW,18.4,21.9,N/A,,Clear,240,2014-02-21 21:15:00
3:35 PM,59.0,14.0,17,29.95,10.0,SW,18.4,24.2,N/A,,Clear,230,2014-02-21 21:35:00
3:55 PM,59.0,14.0,17,29.95,10.0,WSW,17.3,24.2,N/A,,Clear,240,2014-02-21 21:55:00
4:15 PM,59.0,12.2,16,29.95,10.0,WSW,16.1,-,N/A,,Clear,240,2014-02-21 22:15:00
4:35 PM,57.2,14.0,18,29.95,10.0,WSW,11.5,-,N/A,,Clear,240,2014-02-21 22:35:00
4:55 PM,57.2,14.0,18,29.94,10.0,SW,11.5,17.3,N/A,,Clear,220,2014-02-21 22:55:00
5:15 PM,57.2,14.0,18,29.94,10.0,SW,11.5,-,N/A,,Clear,230,2014-02-21 23:15:00
5:35 PM,55.4,14.0,20,29.95,10.0,SSW,10.4,-,N/A,,Clear,210,2014-02-21 23:35:00
5:55 PM,53.6,12.2,19,29.95,10.0,SSW,8.1,-,N/A,,Clear,210,2014-02-21 23:55:00
6:15 PM,53.6,12.2,19,29.96,10.0,SSW,9.2,-,N/A,,Clear,210,2014-02-22 00:15:00
6:35 PM,53.6,12.2,19,29.96,10.0,SSW,8.1,-,N/A,,Clear,210,2014-02-22 00:35:00
6:55 PM,51.8,12.2,21,29.96,10.0,SSW,6.9,-,N/A,,Clear,210,2014-02-22 00:55:00
7:15 PM,51.8,12.2,21,29.97,10.0,SSW,6.9,-,N/A,,Clear,210,2014-02-22 01:15:00
7:35 PM,50.0,12.2,22,29.96,10.0,SSW,6.9,-,N/A,,Clear,200,2014-02-22 01:35:00
7:55 PM,50.0,14.0,24,29.96,10.0,South,8.1,-,N/A,,Clear,190,2014-02-22 01:55:00
8:15 PM,48.2,12.2,24,29.97,10.0,SSW,6.9,-,N/A,,Clear,210,2014-02-22 02:15:00
8:35 PM,46.4,12.2,25,29.98,10.0,SSW,5.8,-,N/A,,Clear,210,2014-02-22 02:35:00
8:55 PM,48.2,14.0,25,29.98,10.0,SSW,6.9,-,N/A,,Clear,200,2014-02-22 02:55:00
9:15 PM,48.2,14.0,25,29.99,10.0,South,6.9,-,N/A,,Clear,190,2014-02-22 03:15:00
9:35 PM,46.4,14.0,27,30.00,10.0,SSW,5.8,-,N/A,,Clear,200,2014-02-22 03:35:00
9:55 PM,44.6,14.0,29,30.00,10.0,South,6.9,-,N/A,,Clear,190,2014-02-22 03:55:00
10:15 PM,44.6,15.8,31,30.00,10.0,South,5.8,-,N/A,,Clear,190,2014-02-22 04:15:00
10:35 PM,44.6,15.8,31,30.00,10.0,SSW,5.8,-,N/A,,Clear,200,2014-02-22 04:35:00
10:55 PM,44.6,15.8,31,30.00,10.0,SSW,4.6,-,N/A,,Clear,200,2014-02-22 04:55:00
11:15 PM,42.8,15.8,34,30.00,10.0,SSW,4.6,-,N/A,,Clear,200,2014-02-22 05:15:00
11:35 PM,42.8,15.8,34,29.99,10.0,South,8.1,-,N/A,,Clear,190,2014-02-22 05:35:00
11:55 PM,44.6,15.8,31,29.99,10.0,South,8.1,-,N/A,,Clear,180,2014-02-22 05:55:00